SCP
-0 -0 -0 -0 -0 0 0 0 0 -0 -0 0 -0 -0 -0 -0 0 0 0 0 0 0 -0 -0 -0 -0 -0 -0 -0 0 0 0 -0 -0 0 -0 -0 -0 0 0 0 0 0
-0 -0 0 0 0 0 0 0 0 0 0 0 -0 -0 -0 0 0 0 0 0 0 0 0 -0 -0 -0 -0 0 0 0 0 -0 -0 -0 0 0 0 0 -0 0 0 0 0
-0 -0 -0 0 -0 0 0 0 0 0 0 0 0 -0 0 0 0 0 0 0 0 0 -0 -0 -0 -0 0 0 0 -0 -0 -0 -0 0 0 0 0 0 0 0 -0 0 -0
-0 -0 -0 -0 0 0 0 0 0 0 0 -0 -0 -0 0 0 0 0 0 0 0 0 0 -0 -0 0 0 0 -0 -0 -0 -0 0 0 0 0 0 0 0 -0 -0 -0 -0
0 -0 -0 -0 0 0 -0 -0 -0 -0 -0 -0 -0 0 0 0 0 -0 -0 -0 -0 -0 -0 -0 0 0 0 0 -0 -0 0 0 0 0 -0 -0 0 -0 0 -0 -0 -0 -0
-0 -0 0 0 0 0 -0 -0 -0 -0 -0 -0 -0 -0 0 0 -0 -0 -0 -0 0 0 -0 -0 -0 0 0 -0 -0 0 0 0 -0 0 -0 0 0 -0 -0 -0 -0 -0 -0
0 -0 -0 0 0 0 -0 -0 -0 -0 -0 -0 -0 -0 -0 -0 -0 -0 -0 0 0 0 0 0 0 0 -0 -0 -0 -0 -0 -0 0 0 -0 -0 -0 -0 -0 -0 -0 -0 -0
0 -0 -0 0 0 0 -0 -0 -0 -0 -0 -0 -0 -0 -0 -0 -0 0 0 0 0 0 0 0 0 0 0 0 -0 -0 0 -0 0 -0 0 0 -0 -0 -0 -0 -0 -0 -0
0 -0 -0 -0 0 -0 -0 -0 -0 -0 -0 0 0 -0 0 0 0 0 0 0 0 0 0 0 0 0 0 0 -0 0 0 -0 0 0 0 0 -0 -0 -0 -0 -0 -0 -0
-0 0 -0 -0 -0 -0 -0 -0 -0 -0 -0 -0 -0 0 0 0 0 0 0 0 0 0 0 0 0 0 0 0 0 0 0 -0 -0 0 0 0 -0 -0 -0 -0 -0 -0 -0
-0 0 -0 -0 -0 0 -0 -0 -0 -0 -0 -0 0 0 0 0 0 0 0 0 0 0 0 0 0 0 0 0 -0 0 0 0 0 0 0 -0 -0 -0 -0 -0 -0 -0 -0
-0 -0 -0 0 0 0 0 0 0 0 0 0 -0 -0 0 0 0 0 0 0 0 0 0 0 0 0 0 0 0 0 0 0 0 0 0 -0 -0 -0 -0 -0 -0 -0 -0
0 0 -0 0 -0 0 0 0 -0 -0 -0 -0 0 0 0 0 0 0 0 0 0 0 0 0 0 0 0 0 0 0 0 0 0 0 0 -0 -0 -0 -0 -0 -0 -0 -0
-0 -0 0 -0 -0 -0 0 0 -0 0 0 0 -0 0 0 0 0 0 0 0 0 0 0 0 0 0 0 0 0 0 0 0 0 1 0 -0 -0 -0 -0 -0 -0 -0 -0
-0 -0 0 -0 -0 -0 0 -0 0 0 0 0 0 0 0 0 0 0 0 0 0 0 0 0 0 0 0 0 0 0 0 0 0 0 1 0 -0 -0 -0 -0 -0 -0 -0
-0 -0 -0 0 0 0 0 0 0 0 0 0 0 0 0 1 0 0 0 0 0 0 0 0 0 0 0 0 0 0 -0 0 0 0 0 1 0 0 -0 -0 -0 -0 -0
-0 -0 -0 -0 0 0 0 0 0 0 0 0 0 0 0 0 0 0 0 0 0 0 0 0 0 0 0 0 0 0 0 0 0 0 0 1 1 0 0 0 -0 -0 -0
-0 -0 -0 -0 -0 -0 0 0 0 0 0 0 0 0 0 0 0 0 0 0 0 0 0 0 0 0 0 0 0 0 0 0 0 0 0 0 1 1 1 0 0 0 0
-0 -0 -0 -0 -0 -0 0 0 0 0 0 0 0 -0 0 0 0 0 0 0 0 0 0 0 0 0 0 0 0 0 0 0 0 0 0 0 0 1 1 1 0 0 0
-0 -0 -0 -0 -0 0 0 0 0 0 -0 -0 -0 0 0 0 0 0 0 0 0 0 0 0 0 0 0 0 0 0 0 0 0 0 0 0 0 0 1 1 1 1 0
-0 -0 -0 0 0 0 0 0 0 0 0 0 0 0 0 0 0 0 0 0 0 0 0 0 0 0 0 0 0 0 0 0 0 0 0 0 0 0 1 0 1 1 1
-0 -0 -0 -0 -0 0 0 0 0 0 0 1 0 0 0 0 0 0 0 0 0 0 0 0 0 0 0 0 0 0 0 0 0 0 0 0 0 0 0 0 1 1 1
-0 -0 -0 -0 0 0 0 0 1 0 0 0 0 1 0 0 0 0 0 0 0 0 0 0 0 0 0 0 0 0 0 0 0 0 0 0 0 0 0 0 0 1 1
-0 -0 -0 -0 0 0 0 0 0 0 0 0 0 0 0 0 0 0 0 0 0 0 0 0 0 0 0 0 0 0 0 0 0 0 0 0 0 0 0 0 0 0 0
-0 -0 0 0 0 0 0 0 0 0 0 0 0 0 0 0 0 0 0 0 0 0 0 0 0 0 0 0 0 0 0 0 0 0 -0 0 0 0 0 0 0 0 0
0 0 0 1 0 0 0 0 0 0 0 0 0 0 0 0 0 0 0 0 0 0 0 0 0 0 0 0 0 0 0 0 0 0 0 0 0 -0 0 0 0 0 0
Wind_Speed_500mb
32 41 43 47 49 53 55 52 51 50 50 51 50 50 55 51 38 37 38 36 32 28 23 26 26 25 25 25 24 23 20 18 20 17 19 19 19 18 17 20 16 11 12
40 41 45 48 50 52 50 51 49 49 49 51 54 54 53 42 38 38 38 37 31 25 22 23 23 24 25 26 28 28 20 19 19 17 17 19 17 15 15 15 12 10 18
42 43 45 46 46 49 48 48 47 48 51 52 49 47 44 42 38 34 32 30 26 23 21 20 22 23 25 27 25 25 22 16 14 17 14 14 14 13 13 11 9 13 18
43 43 45 45 45 45 46 46 48 50 50 48 44 40 37 34 31 29 28 24 21 20 20 19 19 21 24 24 23 22 22 15 10 5 10 14 14 14 14 11 10 16 19
43 43 45 42 43 43 43 44 46 46 44 41 40 38 34 32 29 25 22 18 18 17 17 18 18 19 21 21 20 19 21 18 13 14 9 11 12 12 14 14 16 17 23
42 42 43 41 40 39 41 42 41 38 35 33 30 31 29 28 25 22 18 16 15 14 14 15 14 14 16 19 21 20 18 17 17 12 14 10 13 10 12 15 14 17 21
42 41 40 37 35 36 36 37 35 32 29 27 26 26 24 23 19 16 13 11 10 11 11 12 13 15 16 17 18 17 16 15 10 9 4 6 10 8 11 14 13 18 19
46 43 40 35 33 33 34 32 31 30 30 28 24 20 19 15 12 10 9 8 8 9 11 14 17 19 17 17 16 16 16 14 12 7 5 6 7 8 10 14 15 18 21
35 40 38 35 32 29 27 28 28 25 23 20 19 19 17 14 10 6 2 5 6 10 15 18 19 18 14 12 14 15 14 12 8 6 3 7 7 8 10 11 15 18 18
31 34 34 30 29 30 28 23 23 21 17 14 14 17 14 10 5 3 7 10 10 11 12 12 13 13 8 8 10 14 15 9 12 3 5 7 4 7 11 10 13 18 19
27 25 25 28 28 25 24 22 18 17 16 14 16 17 10 5 4 5 6 9 14 10 10 6 9 10 10 8 9 5 15 12 13 6 6 10 4 4 7 15 13 19 21
36 30 22 23 19 24 21 16 12 12 12 12 12 11 7 5 6 5 1 13 10 4 7 8 11 11 10 7 11 8 3 5 12 17 13 11 7 8 6 15 18 19 21
28 37 23 21 14 21 21 14 16 12 14 9 6 3 8 8 15 15 9 2 5 10 15 21 25 25 22 17 19 12 15 11 10 17 17 15 13 12 10 12 22 20 23
24 34 23 24 22 16 15 10 5 9 7 2 11 9 13 18 16 17 17 12 7 11 16 20 24 27 27 27 24 13 17 14 18 12 17 19 16 16 13 16 20 23 24
30 31 22 23 17 14 18 11 17 13 13 9 15 17 21 20 20 22 19 17 14 20 23 24 27 27 31 34 24 23 25 20 16 26 23 25 21 21 18 19 25 27 26
36 27 21 19 19 20 25 26 24 26 22 17 21 20 21 27 32 32 27 23 20 20 25 25 29 35 33 29 30 26 23 29 24 22 31 28 28 30 26 22 26 29 32
32 33 28 18 23 19 27 25 29 24 34 28 29 34 24 26 28 31 26 28 27 30 34 37 38 41 42 40 34 30 28 29 34 36 32 35 33 29 28 27 24 32 35
26 34 25 24 18 18 19 22 30 33 31 28 26 25 22 23 28 33 36 35 34 32 31 35 36 36 38 39 40 40 39 35 41 38 32 34 43 44 40 36 32 30 35
29 30 28 24 19 18 14 12 16 24 26 29 29 22 22 26 30 39 40 37 36 32 34 33 34 36 38 42 45 42 37 40 38 37 37 36 38 44 47 42 40 38 37
34 28 20 23 20 16 16 12 12 16 19 20 24 22 20 23 29 37 35 29 26 28 28 31 35 36 41 46 46 44 43 40 41 46 43 43 47 47 47 51 52 51 47
29 30 24 20 24 23 17 13 13 10 12 9 12 14 19 22 24 23 17 24 24 26 29 35 40 40 47 43 42 43 42 39 37 36 35 45 53 53 52 50 54 58 58
40 36 33 29 27 21 12 5 5 5 4 9 13 12 17 18 16 18 27 26 26 26 32 34 32 37 43 37 36 38 34 43 20 14 24 30 33 48 51 53 56 59 63
49 40 31 26 19 18 13 9 5 7 4 13 11 14 17 19 24 34 34 31 24 22 23 28 36 37 35 33 28 26 17 11 40 37 33 32 25 31 42 55 57 58 62
52 40 32 30 26 17 13 13 11 7 9 6 14 13 14 29 17 19 21 10 13 24 29 27 28 31 28 29 28 21 23 32 38 36 43 37 29 36 41 40 57 64 61
53 47 42 36 29 24 26 26 21 21 18 16 14 19 24 6 15 15 13 18 28 36 25 23 23 24 23 23 25 28 28 25 20 29 45 55 49 44 45 48 51 55 67
59 53 49 47 43 39 32 21 16 11 20 32 26 28 18 8 12 13 16 26 32 25 19 19 19 22 19 19 22 23 24 27 31 31 42 49 55 57 53 49 51 57 57
Wind_Direction_500mb
114 110 112 114 118 121 123 125 125 121 122 119 119 122 129 132 120 112 111 111 113 109 92 86 84 74 71 64 56 50 47 54 57 61 73 66 72 75 81 92 67 23 88
120 118 118 117 118 119 122 123 122 122 121 118 121 121 120 123 119 110 106 105 101 94 81 74 70 66 59 56 48 42 38 45 46 67 75 62 71 63 71 104 94 43 104
122 121 120 121 121 122 124 125 122 119 118 118 121 120 125 124 118 111 110 110 100 97 89 78 68 63 54 52 46 34 34 44 66 70 87 85 60 72 85 77 67 93 110
124 122 122 122 122 122 123 123 122 121 120 118 118 120 127 129 125 117 110 104 94 90 84 73 60 55 46 37 35 28 23 34 50 31 88 96 69 63 91 81 94 112 122
126 128 124 123 121 122 123 125 128 123 120 118 111 112 114 117 111 109 105 94 85 74 61 52 42 41 34 18 13 19 17 24 31 56 103 99 85 67 99 95 95 119 126
132 129 126 123 123 124 125 129 129 129 126 119 119 112 110 109 106 101 92 81 70 57 39 29 38 30 18 4 358 360 10 18 17 46 68 109 93 76 103 115 100 110 131
136 135 133 133 131 129 131 130 127 125 129 130 125 123 113 105 99 93 80 64 42 18 18 26 15 4 355 357 354 2 12 5 13 49 73 133 108 119 112 114 124 123 135
134 134 130 130 134 135 138 138 133 124 121 124 124 120 118 109 96 76 55 31 5 11 12 4 358 351 356 357 358 7 3 5 1 357 78 111 104 126 120 124 140 140 148
134 138 136 130 131 135 137 142 145 139 132 127 114 118 124 118 122 122 49 354 350 351 345 348 350 355 1 13 21 18 5 7 46 342 74 141 91 120 145 151 144 159 163
132 142 142 140 137 141 143 144 150 156 152 140 125 122 131 148 153 156 34 338 314 324 326 344 3 10 13 12 22 20 22 36 14 299 276 137 149 129 176 172 168 170 173
134 132 139 144 147 147 145 147 150 153 154 153 140 132 129 172 213 323 356 263 322 332 340 20 11 24 32 45 57 46 25 45 347 319 339 316 236 204 186 196 195 185 182
146 149 154 139 141 142 136 139 150 160 162 160 161 153 158 215 256 305 173 312 290 307 350 10 357 330 333 337 15 20 25 27 338 318 293 332 267 232 223 214 205 205 190
168 170 152 143 162 168 158 157 147 156 150 128 159 166 215 243 284 262 287 251 279 335 325 332 328 325 312 308 317 311 307 268 259 279 279 296 281 257 246 236 216 218 207
156 169 164 168 172 139 147 135 108 198 202 147 234 255 253 258 266 289 287 282 267 292 314 316 320 316 307 306 311 295 290 285 241 274 276 281 275 261 263 253 237 229 217
155 182 172 171 186 177 171 213 221 231 241 227 233 230 246 265 293 305 297 288 267 271 291 303 314 323 315 303 296 281 282 291 241 248 261 280 273 262 256 260 250 241 231
168 169 178 191 199 208 195 204 203 200 205 223 219 230 256 271 275 284 299 294 285 278 280 293 298 304 300 311 294 280 268 282 272 246 254 258 261 263 252 261 249 252 244
175 189 210 215 209 223 220 224 225 213 220 227 248 251 259 276 274 279 288 296 300 299 294 296 299 302 304 308 308 294 273 277 276 275 255 252 252 254 258 252 256 249 248
186 200 197 219 214 214 219 225 238 234 239 242 239 247 248 280 274 281 295 299 300 301 296 297 306 307 305 306 306 304 290 273 274 275 263 250 257 256 255 254 259 251 244
196 198 204 207 223 247 250 268 245 244 242 246 251 259 268 264 261 273 290 296 298 298 305 312 308 310 308 306 303 301 295 281 275 274 264 262 265 261 258 253 254 254 249
199 206 197 193 210 241 246 244 247 257 252 261 261 274 275 267 268 285 295 298 298 303 312 318 313 313 317 313 306 303 304 294 285 273 267 259 262 265 260 259 256 255 255
183 174 187 193 193 222 243 245 249 277 279 279 296 279 265 265 279 290 305 315 321 318 317 318 320 319 316 316 309 309 306 304 299 291 291 268 259 260 262 261 257 256 254
178 178 188 195 212 219 222 222 269 318 323 322 314 277 267 289 290 311 306 305 303 303 300 306 309 309 311 318 319 316 321 316 348 343 324 300 280 259 261 264 262 261 259
185 190 192 179 173 185 201 215 235 201 241 277 275 247 270 298 299 300 304 296 295 296 304 300 298 304 312 318 314 310 318 309 309 295 291 306 307 281 269 261 262 264 265
190 197 193 184 186 183 182 210 221 220 241 249 245 252 284 314 338 356 356 346 325 323 306 297 301 311 313 314 312 320 309 307 309 311 310 306 292 293 290 290 265 256 255
193 200 195 195 194 188 196 219 228 252 213 202 202 254 289 297 341 343 338 314 317 317 309 308 317 315 321 325 323 324 321 322 327 323 320 318 307 298 293 288 289 276 267
199 201 201 197 198 202 212 212 217 200 222 226 237 261 271 321 302 286 270 290 308 313 320 328 333 335 338 339 343 332 336 339 338 334 325 320 317 312 307 297 289 280 274
Wind_Speed_850mb
32 41 43 47 49 53 55 52 51 50 50 51 50 50 55 51 38 37 38 36 32 28 23 26 26 25 25 25 24 23 20 18 20 17 19 19 19 18 17 20 16 11 12
40 41 45 48 50 52 50 51 49 49 49 51 54 54 53 42 38 38 38 37 31 25 22 23 23 24 25 26 28 28 20 19 19 17 17 19 17 15 15 15 12 10 18
42 43 45 46 46 49 48 48 47 48 51 52 49 47 44 42 38 34 32 30 26 23 21 20 22 23 25 27 25 25 22 16 14 17 14 14 14 13 13 11 9 13 18
43 43 45 45 45 45 46 46 48 50 50 48 44 40 37 34 31 29 28 24 21 20 20 19 19 21 24 24 23 22 22 15 10 5 10 14 14 14 14 11 10 16 19
43 43 45 42 43 43 43 44 46 46 44 41 40 38 34 32 29 25 22 18 18 17 17 18 18 19 21 21 20 19 21 18 13 14 9 11 12 12 14 14 16 17 23
42 42 43 41 40 39 41 42 41 38 35 33 30 31 29 28 25 22 18 16 15 14 14 15 14 14 16 19 21 20 18 17 17 12 14 10 13 10 12 15 14 17 21
42 41 40 37 35 36 36 37 35 32 29 27 26 26 24 23 19 16 13 11 10 11 11 12 13 15 16 17 18 17 16 15 10 9 4 6 10 8 11 14 13 18 19
46 43 40 35 33 33 34 32 31 30 30 28 24 20 19 15 12 10 9 8 8 9 11 14 17 19 17 17 16 16 16 14 12 7 5 6 7 8 10 14 15 18 21
35 40 38 35 32 29 27 28 28 25 23 20 19 19 17 14 10 6 2 5 6 10 15 18 19 18 14 12 14 15 14 12 8 6 3 7 7 8 10 11 15 18 18
31 34 34 30 29 30 28 23 23 21 17 14 14 17 14 10 5 3 7 10 10 11 12 12 13 13 8 8 10 14 15 9 12 3 5 7 4 7 11 10 13 18 19
27 25 25 28 28 25 24 22 18 17 16 14 16 17 10 5 4 5 6 9 14 10 10 6 9 10 10 8 9 5 15 12 13 6 6 10 4 4 7 15 13 19 21
36 30 22 23 19 24 21 16 12 12 12 12 12 11 7 5 6 5 1 13 10 4 7 8 11 11 10 7 11 8 3 5 12 17 13 11 7 8 6 15 18 19 21
28 37 23 21 14 21 21 14 16 12 14 9 6 3 8 8 15 15 9 2 5 10 15 21 25 25 22 17 19 12 15 11 10 17 17 15 13 12 10 12 22 20 23
24 34 23 24 22 16 15 10 5 9 7 2 11 9 13 18 16 17 17 12 7 11 16 20 24 27 27 27 24 13 17 14 18 12 17 19 16 16 13 16 20 23 24
30 31 22 23 17 14 18 11 17 13 13 9 15 17 21 20 20 22 19 17 14 20 23 24 27 27 31 34 24 23 25 20 16 26 23 25 21 21 18 19 25 27 26
36 27 21 19 19 20 25 26 24 26 22 17 21 20 21 27 32 32 27 23 20 20 25 25 29 35 33 29 30 26 23 29 24 22 31 28 28 30 26 22 26 29 32
32 33 28 18 23 19 27 25 29 24 34 28 29 34 24 26 28 31 26 28 27 30 34 37 38 41 42 40 34 30 28 29 34 36 32 35 33 29 28 27 24 32 35
26 34 25 24 18 18 19 22 30 33 31 28 26 25 22 23 28 33 36 35 34 32 31 35 36 36 38 39 40 40 39 35 41 38 32 34 43 44 40 36 32 30 35
29 30 28 24 19 18 14 12 16 24 26 29 29 22 22 26 30 39 40 37 36 32 34 33 34 36 38 42 45 42 37 40 38 37 37 36 38 44 47 42 40 38 37
34 28 20 23 20 16 16 12 12 16 19 20 24 22 20 23 29 37 35 29 26 28 28 31 35 36 41 46 46 44 43 40 41 46 43 43 47 47 47 51 52 51 47
29 30 24 20 24 23 17 13 13 10 12 9 12 14 19 22 24 23 17 24 24 26 29 35 40 40 47 43 42 43 42 39 37 36 35 45 53 53 52 50 54 58 58
40 36 33 29 27 21 12 5 5 5 4 9 13 12 17 18 16 18 27 26 26 26 32 34 32 37 43 37 36 38 34 43 20 14 24 30 33 48 51 53 56 59 63
49 40 31 26 19 18 13 9 5 7 4 13 11 14 17 19 24 34 34 31 24 22 23 28 36 37 35 33 28 26 17 11 40 37 33 32 25 31 42 55 57 58 62
52 40 32 30 26 17 13 13 11 7 9 6 14 13 14 29 17 19 21 10 13 24 29 27 28 31 28 29 28 21 23 32 38 36 43 37 29 36 41 40 57 64 61
53 47 42 36 29 24 26 26 21 21 18 16 14 19 24 6 15 15 13 18 28 36 25 23 23 24 23 23 25 28 28 25 20 29 45 55 49 44 45 48 51 55 67
59 53 49 47 43 39 32 21 16 11 20 32 26 28 18 8 12 13 16 26 32 25 19 19 19 22 19 19 22 23 24 27 31 31 42 49 55 57 53 49 51 57 57
Wind_Direction_850mb
114 110 112 114 118 121 123 125 125 121 122 119 119 122 129 132 120 112 111 111 113 109 92 86 84 74 71 64 56 50 47 54 57 61 73 66 72 75 81 92 67 23 88
120 118 118 117 118 119 122 123 122 122 121 118 121 121 120 123 119 110 106 105 101 94 81 74 70 66 59 56 48 42 38 45 46 67 75 62 71 63 71 104 94 43 104
122 121 120 121 121 122 124 125 122 119 118 118 121 120 125 124 118 111 110 110 100 97 89 78 68 63 54 52 46 34 34 44 66 70 87 85 60 72 85 77 67 93 110
124 122 122 122 122 122 123 123 122 121 120 118 118 120 127 129 125 117 110 104 94 90 84 73 60 55 46 37 35 28 23 34 50 31 88 96 69 63 91 81 94 112 122
126 128 124 123 121 122 123 125 128 123 120 118 111 112 114 117 111 109 105 94 85 74 61 52 42 41 34 18 13 19 17 24 31 56 103 99 85 67 99 95 95 119 126
132 129 126 123 123 124 125 129 129 129 126 119 119 112 110 109 106 101 92 81 70 57 39 29 38 30 18 4 358 360 10 18 17 46 68 109 93 76 103 115 100 110 131
136 135 133 133 131 129 131 130 127 125 129 130 125 123 113 105 99 93 80 64 42 18 18 26 15 4 355 357 354 2 12 5 13 49 73 133 108 119 112 114 124 123 135
134 134 130 130 134 135 138 138 133 124 121 124 124 120 118 109 96 76 55 31 5 11 12 4 358 351 356 357 358 7 3 5 1 357 78 111 104 126 120 124 140 140 148
134 138 136 130 131 135 137 142 145 139 132 127 114 118 124 118 122 122 49 354 350 351 345 348 350 355 1 13 21 18 5 7 46 342 74 141 91 120 145 151 144 159 163
132 142 142 140 137 141 143 144 150 156 152 140 125 122 131 148 153 156 34 338 314 324 326 344 3 10 13 12 22 20 22 36 14 299 276 137 149 129 176 172 168 170 173
134 132 139 144 147 147 145 147 150 153 154 153 140 132 129 172 213 323 356 263 322 332 340 20 11 24 32 45 57 46 25 45 347 319 339 316 236 204 186 196 195 185 182
146 149 154 139 141 142 136 139 150 160 162 160 161 153 158 215 256 305 173 312 290 307 350 10 357 330 333 337 15 20 25 27 338 318 293 332 267 232 223 214 205 205 190
168 170 152 143 162 168 158 157 147 156 150 128 159 166 215 243 284 262 287 251 279 335 325 332 328 325 312 308 317 311 307 268 259 279 279 296 281 257 246 236 216 218 207
156 169 164 168 172 139 147 135 108 198 202 147 234 255 253 258 266 289 287 282 267 292 314 316 320 316 307 306 311 295 290 285 241 274 276 281 275 261 263 253 237 229 217
155 182 172 171 186 177 171 213 221 231 241 227 233 230 246 265 293 305 297 288 267 271 291 303 314 323 315 303 296 281 282 291 241 248 261 280 273 262 256 260 250 241 231
168 169 178 191 199 208 195 204 203 200 205 223 219 230 256 271 275 284 299 294 285 278 280 293 298 304 300 311 294 280 268 282 272 246 254 258 261 263 252 261 249 252 244
175 189 210 215 209 223 220 224 225 213 220 227 248 251 259 276 274 279 288 296 300 299 294 296 299 302 304 308 308 294 273 277 276 275 255 252 252 254 258 252 256 249 248
186 200 197 219 214 214 219 225 238 234 239 242 239 247 248 280 274 281 295 299 300 301 296 297 306 307 305 306 306 304 290 273 274 275 263 250 257 256 255 254 259 251 244
196 198 204 207 223 247 250 268 245 244 242 246 251 259 268 264 261 273 290 296 298 298 305 312 308 310 308 306 303 301 295 281 275 274 264 262 265 261 258 253 254 254 249
199 206 197 193 210 241 246 244 247 257 252 261 261 274 275 267 268 285 295 298 298 303 312 318 313 313 317 313 306 303 304 294 285 273 267 259 262 265 260 259 256 255 255
183 174 187 193 193 222 243 245 249 277 279 279 296 279 265 265 279 290 305 315 321 318 317 318 320 319 316 316 309 309 306 304 299 291 291 268 259 260 262 261 257 256 254
178 178 188 195 212 219 222 222 269 318 323 322 314 277 267 289 290 311 306 305 303 303 300 306 309 309 311 318 319 316 321 316 348 343 324 300 280 259 261 264 262 261 259
185 190 192 179 173 185 201 215 235 201 241 277 275 247 270 298 299 300 304 296 295 296 304 300 298 304 312 318 314 310 318 309 309 295 291 306 307 281 269 261 262 264 265
190 197 193 184 186 183 182 210 221 220 241 249 245 252 284 314 338 356 356 346 325 323 306 297 301 311 313 314 312 320 309 307 309 311 310 306 292 293 290 290 265 256 255
193 200 195 195 194 188 196 219 228 252 213 202 202 254 289 297 341 343 338 314 317 317 309 308 317 315 321 325 323 324 321 322 327 323 320 318 307 298 293 288 289 276 267
199 201 201 197 198 202 212 212 217 200 222 226 237 261 271 321 302 286 270 290 308 313 320 328 333 335 338 339 343 332 336 339 338 334 325 320 317 312 307 297 289 280 274